Location: Most
(50.5133°N, 13.6207°E)
Time: 11:01:41
(UTC+01:00)

Oscar 11 - Pass Details

Date: 04 December 2022
Orbit: 611 x 621 km, 97.6° (Epoch: 28 January)

Event Time Altitude Azimuth Distance (km) Brightness Sun altitude
Rises 05:56:38 0° 4° (N) 2,891 10.4 -16.8°
Reaches altitude 10° 05:59:05 10° 352° (N) 1,981 9.4 -16.4°
Enters shadow 06:01:31 23° 322° (NW) 1,319 8.3 -16.1°
